This demonstration page uses our WeatherBlox Daily Observations layout. Learn more.

40.92945, -100.16068

Hourly Observations for April 2, 2017

Temp ( °F °C ) Dew Point ( °F °C ) Humidity (%) Winds ( mph kmh ) Pressure ( in mb ) Visibility ( mi km ) Precip ( " mm )
12:15 am 00:15 Cloudy with Mist and Fog 42 5.4 40 4.6 95 95 S 12 19 30.12 1020 1 1.60934 0 0
12:35 am 00:35 Cloudy with Mist and Fog 42 5.3 40 4.5 95 95 S 10 17 30.12 1020 1.25 2.011675 0 0
12:55 am 00:55 Cloudy with Mist and Fog 41 5.2 40 4.5 95 95 S 7 11 30.09 1019 0.75 1.207005 0 0
1:15 am 01:15 Cloudy with Mist and Fog 42 5.3 40 4.5 95 95 S 9 15 30.09 1019 1 1.60934 0 0
1:35 am 01:35 Cloudy with Mist and Fog 41 5.2 40 4.5 95 95 S 10 17 30.09 1019 1.75 2.816345 0 0
1:55 am 01:55 Cloudy with Mist and Fog 41 5.2 40 4.5 95 95 S 8 13 30.09 1019 2 3.21868 0 0
2:15 am 02:15 Cloudy with Mist and Fog 41 5 40 4.3 95 95 S 9 15 30.09 1019 4 6.43736 0 0
2:35 am 02:35 Cloudy with Mist and Fog 41 5.1 40 4.3 95 95 SSW 7 11 30.09 1019 3 4.82802 0 0
2:55 am 02:55 Cloudy with Mist and Fog 41 5.2 40 4.5 95 95 S 7 11 30.09 1019 1 1.60934 0 0
3:15 am 03:15 Cloudy with Mist and Fog 42 5.4 40 4.6 95 95 SSW 6 9 30.09 1019 1.75 2.816345 0 0
3:35 am 03:35 Cloudy with Mist and Fog 42 5.5 40 4.7 95 95 SSW 5 7 30.06 1018 2.5 4.02335 0 0
3:55 am 03:55 Cloudy with Mist and Fog 42 5.5 40 4.7 95 95 SSW 5 7 30.06 1018 4 6.43736 0 0
4:15 am 04:15 Cloudy with Mist and Fog 42 5.5 40 4.7 95 95 SSW 6 9 30.03 1017 4 6.43736 0 0
4:35 am 04:35 Cloudy with Mist and Fog 42 5.5 40 4.7 95 95 S 5 7 30.03 1017 4 6.43736 0 0
4:55 am 04:55 Cloudy with Mist and Fog 42 5.6 41 4.8 95 95 S 5 7 30.03 1017 4 6.43736 0 0
5:15 am 05:15 Cloudy with Mist and Fog 42 5.6 41 4.8 95 95 S 3 6 30.03 1017 4 6.43736 0 0
5:35 am 05:35 Cloudy with Mist and Fog 42 5.6 41 4.8 95 95 SSE 6 9 30.03 1017 4 6.43736 0 0
5:55 am 05:55 Cloudy with Mist and Fog 42 5.5 40 4.7 95 95 SSE 7 11 30.03 1017 4 6.43736 0 0
6:15 am 06:15 Cloudy with Mist and Fog 42 5.5 40 4.7 95 95 S 6 9 30.03 1017 3 4.82802 0 0
6:35 am 06:35 Cloudy with Mist and Fog 42 5.5 40 4.7 95 95 SSE 3 6 30 1016 4 6.43736 0 0
6:55 am 06:55 Cloudy with Mist and Fog 42 5.5 40 4.7 95 95 SE 5 7 30 1016 4 6.43736 0 0
7:15 am 07:15 Cloudy with Mist and Fog 42 5.5 40 4.6 94 94 SSE 9 15 30 1016 4 6.43736 0 0
7:35 am 07:35 Cloudy with Mist and Fog 42 5.5 40 4.5 93 93 SSE 8 13 30 1016 4 6.43736 0 0
7:55 am 07:55 Cloudy with Mist and Fog 42 5.5 40 4.6 94 94 SSE 8 13 30 1016 3 4.82802 0 0
8:15 am 08:15 Cloudy with Mist and Fog 42 5.5 40 4.6 94 94 SSE 10 17 30.03 1017 3 4.82802 0 0
8:35 am 08:35 Cloudy with Mist and Fog 42 5.5 40 4.5 93 93 SSE 10 17 30 1016 4 6.43736 0 0
8:55 am 08:55 Partly Cloudy with Mist and Fog 43 6.3 41 5.1 92 92 S 10 17 29.97 1015 5 8.0467 0 0
9:15 am 09:15 Sunny 45 7 42 5.5 90 90 S 10 17 29.97 1015 10 16.0934 0 0
9:35 am 09:35 Partly Cloudy 46 7.6 42 5.3 86 86 SSW 13 20 29.94 1014 10 16.0934 0 0
9:55 am 09:55 Partly Cloudy 47 8.2 42 5.4 83 83 SSW 13 20 29.94 1014 10 16.0934 0 0
10:15 am 10:15 Partly Cloudy 48 8.9 42 5.7 81 81 SW 14 22 29.94 1014 10 16.0934 0 0
10:35 am 10:35 Mostly Cloudy 47 8.6 40 4.6 76 76 SSW 12 19 29.94 1014 10 16.0934 0 0
10:55 am 10:55 Cloudy 49 9.2 41 4.9 75 75 SSW 12 19 29.91 1013 10 16.0934 0 0
11:15 am 11:15 Cloudy 50 10 41 5.1 72 72 SSW 13 20 29.91 1013 10 16.0934 0 0
11:35 am 11:35 Mostly Cloudy 50 10 40 4.7 70 70 SSW 10 17 29.88 1012 10 16.0934 0 0
11:55 am 11:55 Cloudy 52 10.9 42 5.3 69 69 SSW 9 15 29.88 1012 10 16.0934 0 0
12:15 pm 12:15 Mostly Cloudy 52 11.1 41 5.1 67 67 SSW 8 13 29.88 1012 10 16.0934 0 0
12:35 pm 12:35 Mostly Cloudy 53 11.4 41 5.1 65 65 SSW 10 17 29.88 1012 10 16.0934 0 0
12:55 pm 12:55 Partly Cloudy 54 12.1 41 5.2 63 63 SSW 10 17 29.83 1010 10 16.0934 0 0
1:15 pm 13:15 Partly Cloudy 55 12.5 41 5.1 61 61 SW 9 15 29.83 1010 10 16.0934 0 0
1:35 pm 13:35 Sunny 56 13.5 41 5.2 57 57 SW 7 11 29.8 1009 10 16.0934 0 0
1:55 pm 13:55 Partly Cloudy 58 14.4 43 5.9 57 57 SW 8 13 29.8 1009 10 16.0934 0 0
2:15 pm 14:15 Mostly Cloudy 58 14.3 41 5 54 54 WSW 5 7 29.77 1008 10 16.0934 0 0
2:35 pm 14:35 Partly Cloudy 59 14.9 41 4.9 51 51 WSW 5 7 29.74 1007 10 16.0934 0 0
2:55 pm 14:55 Sunny 60 15.3 42 5.3 52 52 WSW 7 11 29.71 1006 10 16.0934 0 0
3:15 pm 15:15 Sunny 61 16.2 40 4.4 46 46 WSW 8 13 29.71 1006 10 16.0934 0 0
3:35 pm 15:35 Sunny 62 16.5 40 4.5 45 45 SW 8 13 29.71 1006 10 16.0934 0 0
3:55 pm 15:55 Sunny 62 16.6 39 4.1 44 44 SSW 5 7 29.68 1005 10 16.0934 0 0
4:15 pm 16:15 Sunny 63 17.1 40 4.3 43 43 SSW 10 17 29.68 1005 10 16.0934 0 0
4:35 pm 16:35 Sunny 63 17.1 39 4 42 42 SSW 8 13 29.68 1005 10 16.0934 0 0
4:55 pm 16:55 Sunny 64 17.5 40 4.4 42 42 SSW 5 7 29.65 1004 10 16.0934 0 0
5:15 pm 17:15 Sunny 64 17.7 41 4.9 43 43 S 12 19 29.62 1003 10 16.0934 0 0
5:35 pm 17:35 Sunny 63 17.3 40 4.2 42 42 SE 3 6 29.62 1003 10 16.0934 0 0
5:55 pm 17:55 Sunny 63 17.4 40 4.3 42 42 SSE 5 7 29.62 1003 10 16.0934 0 0
6:15 pm 18:15 Sunny 63 17.2 41 4.8 44 44 SSE 8 13 29.62 1003 10 16.0934 0 0
6:35 pm 18:35 Sunny 63 17 41 5 45 45 SSE 7 11 29.62 1003 10 16.0934 0 0
6:55 pm 18:55 Sunny 62 16.7 41 5.1 46 46 S 8 13 29.65 1004 10 16.0934 0 0
7:15 pm 19:15 Sunny 61 16 42 5.3 49 49 SSE 9 15 29.65 1004 10 16.0934 0 0
7:35 pm 19:35 Sunny 60 15.6 42 5.4 51 51 SSE 9 15 29.65 1004 10 16.0934 0 0
7:55 pm 19:55 Sunny 58 14.3 42 5.4 55 55 SSE 7 11 29.65 1004 10 16.0934 0 0
8:15 pm 20:15 Clear 55 12.8 41 5.1 60 60 SSE 7 11 29.68 1005 10 16.0934 0 0
8:35 pm 20:35 Clear 55 12.5 41 4.9 60 60 SE 9 15 29.68 1005 10 16.0934 0 0
8:55 pm 20:55 Clear 54 12.2 44 6.4 68 68 SSE 13 20 29.68 1005 10 16.0934 0 0
9:15 pm 21:15 Clear 52 11.2 44 6.5 73 73 SSE 10 17 29.68 1005 10 16.0934 0 0
9:35 pm 21:35 Clear 51 10.7 43 6.3 74 74 SE 10 17 29.68 1005 10 16.0934 0 0
9:55 pm 21:55 Clear 51 10.5 43 6.1 74 74 SSE 10 17 29.71 1006 10 16.0934 0 0
10:15 pm 22:15 Clear 49 9.5 43 5.9 78 78 SSE 9 15 29.74 1007 10 16.0934 0 0
10:35 pm 22:35 Clear 49 9.4 43 5.9 79 79 SSE 12 19 29.74 1007 10 16.0934 0 0
10:55 pm 22:55 Clear 48 9 43 6.2 83 83 SSE 10 17 29.71 1006 10 16.0934 0 0
11:15 pm 23:15 Clear 47 8.6 44 6.6 87 87 SSE 9 15 29.71 1006 10 16.0934 0 0
11:35 pm 23:35 Clear 47 8.3 44 6.7 90 90 SSE 8 13 29.71 1006 10 16.0934 0 0
11:55 pm 23:55 Clear 46 7.6 43 6.1 90 90 S 6 9 29.71 1006 10 16.0934 0 0

Powered by AerisWeather